Volver al catálogo

THOR ABLESTAR DEB

ActivoPO
NORAD 706·DEBRIS·🇺🇸 United States

Lanzado Dec 5, 1963 desde Vandenberg Space Force Base

Loading…

Próximos Pases (próximas 24 horas)

TLE

ActualizadoSource: Space-Track

Época: Sep 14, 2026, 10:44 UTC

1 00706U 63049D   26257.44754339  .00000202  00000-0  27170-3 0  9990
2 00706  89.9122  72.2592 0027369 155.2596 233.5626 13.56652450 95416

Sigue THOR ABLESTAR DEB en tiempo real con AllMySat

Download on the App Store